Weather Roundup
Issued by NWS

Home | Current Version | Previous Version | Graphics & Text | Print | Product List | Glossary Off
Versions: 1 2 3 4 5 6 7 8 9 10 11 12 13 14 15 16 17 18 19 20 21 22 23 24 25 26 27 28 29 30 31 32 33 34 35 36 37 38 39 40 41 42 43 44 45 46 47 48 49 50

000
NZUS93 KARX 041310
HRRWXR

CURRENT HOURLY OBSERVATIONS ACROSS
MUCH OF THE UPPER MISSISSIPPI VALLEY
NATIONAL WEATHER SERVICE LA CROSSE WI
800 AM CDT SAT JUL 04 2015


...SOUTHEAST MINNESOTA...


CITY           SKY/WX    TMP DP  RH WIND       PRES   REMARKS
ROCHESTER      SUNNY     64  59  83 SW3       29.98F
ROCHESTER/MAYO FAIR      64  57  79 CALM      29.98S
WINONA         SUNNY     64  61  88 CALM      29.96S
AUSTIN         SUNNY     63  57  82 CALM      29.98S
ALBERT LEA     SUNNY     66  61  82 CALM      29.98S
DODGE CENTER   MOSUNNY   63  61  94 SW3       29.98S
PRESTON        SUNNY     62  56  82 CALM      29.99S
OWATONNA       SUNNY     64  59  82 SW3       29.97S HAZE
FARIBAULT      MOSUNNY   64  61  88 CALM      29.96S
$$

...ELSEWHERE IN MINNESOTA...


CITY           SKY/WX    TMP DP  RH WIND       PRES   REMARKS
MINNEAPOLIS    PTSUNNY   68  61  78 CALM      29.95S HAZE
INTNL FALLS    SUNNY     57  55  93 SE5       29.95F
DULUTH         SUNNY     65  58  78 E6        29.98R
RED WING       SUNNY     64  63  94 CALM      29.94S
REDWOOD FALLS  SUNNY     69  63  81 W3        29.94F HAZE
MANKATO        SUNNY     64  59  82 SW5       29.96F
WORTHINGTON    SUNNY     64  57  77 SW7       29.98S
FAIRMONT       SUNNY     64  55  72 SW3       29.97S
$$

...SOUTHWEST WISCONSIN...


CITY           SKY/WX    TMP DP  RH WIND       PRES   REMARKS
LA CROSSE      SUNNY     65  61  87 S6        29.96S
PRAIRIE DU CHI SUNNY     61  58  91 CALM      29.99S
BOSCOBEL       MOSUNNY   60  59  96 CALM      29.99S FOG
LONE ROCK      CLOUDY    59  57  93 CALM      29.99S FOG
PLATTEVILLE    SUNNY     62  59  89 CALM      30.00S
FORT MC COY    SUNNY     62  58  86 CALM      29.98S
CAMP DOUGLAS   SUNNY     64  64 100 CALM      29.96S
VIROQUA        FAIR      64  62  93 SW3       29.99R
WIS DELLS      SUNNY     64  59  85 CALM      29.98S
$$

...ELSEWHERE IN WISCONSIN...


CITY           SKY/WX    TMP DP  RH WIND       PRES   REMARKS
MILWAUKEE      MOSUNNY   68  56  65 W8        29.97S
MADISON        SUNNY     66  59  78 CALM      29.98R
GREEN BAY      SUNNY     67  61  81 CALM      29.96R
EAU CLAIRE     SUNNY     65  59  81 SW3       29.95S
BLACK RVR FLS  FAIR      65  63  94 CALM      29.96S
MEDFORD        SUNNY     61  59  93 CALM      29.98S
WAUSAU         SUNNY     64  59  83 CALM      29.96S
WIS RAPIDS     SUNNY     66  58  75 CALM      29.98S
MARSHFIELD     SUNNY     65  58  78 CALM      29.97S
RICE LAKE      FOG       61  60  96 CALM      29.98S VSB<1/4
$$

...NORTHEAST IOWA...


CITY           SKY/WX    TMP DP  RH WIND       PRES   REMARKS
DECORAH          N/A    N/A N/A N/A MISG        N/A
MASON CITY     SUNNY     66  59  78 W7        30.01R
CHARLES CITY   SUNNY     63  61  94 CALM      30.00S
OELWEIN          N/A     63  61  94 CALM      30.01R
$$

...ELSEWHERE IN IOWA...


CITY           SKY/WX    TMP DP  RH WIND       PRES   REMARKS
DES MOINES     SUNNY     65  57  75 CALM      30.00S
IOWA CITY      SUNNY     64  57  78 CALM      30.01S
FORT DODGE     SUNNY     61  55  82 CALM      30.01S
$$

...NORTHERN ILLINOIS...


CITY           SKY/WX    TMP DP  RH WIND       PRES   REMARKS
CHICAGO-OHARE  SUNNY     67  56  67 NW5       29.98S
CHICAGO-MIDWAY SUNNY     68  58  70 NW5       29.99R
MOLINE         SUNNY     64  60  87 CALM      30.00R FOG
ROCKFORD       SUNNY     62  57  83 CALM      30.01R
PEORIA         SUNNY     69  62  78 NE3       30.01R
$$

NOTE: "FAIR" INDICATES FEW OR NO CLOUDS BELOW 12,000 FEET WITH NO
SIGNIFICANT WEATHER AND/OR OBSTRUCTIONS TO VISIBILITY. WIND
SPEEDS ARE IN MILES-PER-HOUR.



USA.gov is the U.S. government's official web portal to all federal, state and local government web resources and services.